ATLAS 5 CENTAUR DEB, 43983

Orbit data source: Space-Track

ATLAS 5 CENTAUR DEB, 43983 is space debris in HEO originally from a launch on Wed, 17 Sep 2014 UTC launched from the Air Force Eastern Test Range (AFETR). Debris objects in space refer to the collection of defunct objects orbiting the Earth. Examples of debris include non-operational satellites, rocket bodies, and fragments generated from explosions, collisions, or faulty payload assembly.

Loading next visibility...
Identifier
43983, 2014-055AN
Orbit
HEO
Country
Flag of USUS
Related business
Flag of USUnited Launch Alliance/Lockheed Martin (US)
Manufacturer
Unknown
Mission
Spacecraft
Bus & Motor
Unknown
Mass
Unknown
Launch date (UTC)
2014-09-17 (12 years ago)
Launch vehicle
Unknown
Launch site
Air Force Eastern Test Range (AFETR)
Object type
Payload
Rocket body
Debris
Shape & HBR
Unknown shape, 1.1 m
Radar Cross Section
Small (<0.1 m²)

Expand to show TLE details & history
Last TLE update: 1 day ago

TLE from 1 day ago
0 ATLAS 5 CENTAUR DEB
1 43983U 14055AN  26125.87366334 -.00000063  00000-0  00000-0 0  9998
2 43983  20.7163 120.6828 4877719 205.5620 118.9568  1.90079736 53196
Epoch: 2026-05-05T20:58Z
TLE epoch observation values (Epoch: 2026-05-05T20:58:04.512Z)
Latitude
-0.00002°
Longitude
-57.61927°
Altitude
31,061.335 km
Speed
2.61 km/s
True Right ascension
08h 02m 34s
True Declination
0° 00' 00"
Sunlit
Object was in daylight at epoch
Visualization orbit readout
Latitude
Unknown
Longitude
Unknown
Altitude
Unknown
Speed
Unknown
Apparent Right ascension
Unknown
Apparent Declination
Unknown
Sunlit
N/A
Visualization observer readout
Local Sidereal Time
05:33:18
Azimuth
Unknown
Elevation
Unknown
Doppler factor
Unknown
Orbital elements
Apogee altitude
34,580.491 km
Perigee altitude
7,723.595 km
Semi-major axis
27,530.18 km
Eccentricity
0.48777
Inclination
20.7163°
RAAN
120.6828°
Arg. of periapsis
205.562°
True anomaly
154.45193°
Mean anomaly
118.9568°
Eccentric anomaly
137.74825°
Mean motion
0.47515 °/min
Orbital period
757.66 mins
BSTAR
0
Loading maneuver chart data...
Computing Atmospheric mass density...

Documentation

Showing up to 5 results
|